Regional Weather Roundup
Issued by NWS

Home | Current Version | Previous Version | Text Only | Print | Product List | Glossary On
Versions: 1 2 3 4 5 6 7 8 9 10 11 12 13 14 15 16 17 18 19 20 21 22 23 24 25 26 27
000
ASUS45 KTFX 181810
RWRMT
MONTANA REGIONAL WEATHER ROUNDUP
NATIONAL WEATHER SERVICE GREAT FALLS MT
1200 PM MDT WED OCT 18 2017

NOTE: "FAIR" INDICATES FEW OR NO CLOUDS BELOW 12000 FEET WITH NO
SIGNIFICANT WEATHER AND/OR OBSTRUCTIONS TO VISIBILITY.

MTZ001>007-043-181900-
WEST OF THE DIVIDE

CITY           SKY/WX    TMP DP  RH WIND       PRES   REMARKS
KALISPELL      MOSUNNY   48  27  44 S5        29.98F
MISSOULA       CLOUDY    56  36  47 NE3       30.03S
BUTTE          CLOUDY    58  14  17 W7        30.07S
MULLAN PASS    LGT RAIN  38  33  82 VRB5      30.00F
ANACONDA         N/A     59  19  21 S10G17    30.04S
LIBBY            N/A     45  21  39 S5        29.98F
$$

MTZ008-052>055-181900-
SOUTHWEST MONTANA

CITY           SKY/WX    TMP DP  RH WIND       PRES   REMARKS
BOZEMAN        CLOUDY    60  19  20 CALM      30.02F
DILLON         CLOUDY    60  21  22 SW10      30.07F
W YELLOWSTONE  CLOUDY    50  21  32 SW12G25   30.21S
ENNIS          CLOUDY    61  12  15 S22G32    30.12S
$$

MTZ009-010-012-014-046-048-049-054-181900-
EAST SLOPES AND CENTRAL MONTANA

CITY           SKY/WX    TMP DP  RH WIND       PRES   REMARKS
CUT BANK       PTSUNNY   53  18  25 S15G23    29.91S
GREAT FALLS    MOSUNNY   58  31  35 SW21G29   29.94S
MALMSTROM AFB  CLOUDY    56  31  37 SW31G37   29.94F
HELENA         SUNNY     58  32  37 E7        29.99F
$$

MTZ011-013-016-021-045-047-050-051-181900-
NORTH CENTRAL MONTANA

CITY           SKY/WX    TMP DP  RH WIND       PRES   REMARKS
HAVRE          CLOUDY    53  23  31 SW13      29.95F
LEWISTOWN      SUNNY     58  26  29 VRB5      29.96F
N BAR RANCH      N/A     50  25  37 SE10G17   30.01S
CHINOOK          N/A     54  25  32 W3        29.96F
$$

MTZ017>020-022>027-061-062-181900-
NORTHEAST MONTANA

CITY           SKY/WX    TMP DP  RH WIND       PRES   REMARKS
GLASGOW        MOSUNNY   53  21  28 W14       29.97F
JORDAN           N/A     55  25  31 SW16      30.00F
SIDNEY         SUNNY     54  25  32 W14       30.00S
WOLF POINT     SUNNY     55  23  28 SW13G20   29.99F
MALTA          SUNNY     54  19  26 W13       29.98R
$$

MTZ028>42-056>058-181900-
SOUTHCENTRAL AND SOUTHEAST MONTANA

CITY           SKY/WX    TMP DP  RH WIND       PRES   REMARKS
BAKER          SUNNY     53  23  31 SW9       30.06S
BILLINGS       MOSUNNY   55  29  36 SE10      30.01F
LIVINGSTON     SUNNY     65  19  17 SW29G35   29.97F
MILES CITY     SUNNY     55  22  27 SW7       30.05F
$$

REGIONAL REPORTS...DAKOTAS

CITY           SKY/WX    TMP DP  RH WIND       PRES   REMARKS
WILLISTON      SUNNY     53  22  29 W20       29.97S
MINOT          SUNNY     55  19  24 W28G41    29.88R
DICKINSON      SUNNY     54  23  30 W20       30.00S
BEACH            N/A     52  21  30 W17       30.06R
CROSBY           N/A     52  14  22 W28G39    29.90R
TIOGA            N/A     50  18  27 W25G38    29.93R
WATFORD CITY     N/A     52  21  30 W20G29    29.97S
BISMARCK       PTSUNNY   57  21  24 NW20G28   29.99S
GRAND FORKS    MOSUNNY   61  19  19 W22G37    29.80R
FARGO          PTSUNNY   60  25  26 W21G32    29.87S
BUFFALO SD       N/A     57  22  25 W13       30.02S
RAPID CITY     SUNNY     60  22  23 N10       30.10F
$$

REGIONAL REPORTS...WYOMING/IDAHO/WASHINGTON

CITY           SKY/WX    TMP DP  RH WIND       PRES   REMARKS
GILLETTE       SUNNY     56  26  31 SE7       30.10F
SHERIDAN       SUNNY     60  28  29 SE12G20   30.05F
BUFFALO WY     SUNNY     59  21  23 SE23G29   30.08F
CODY           SUNNY     67  14  13 SW14      30.08F
YELLOWSTONE LA   N/A     50  18  28 VRB5      30.25S
IDAHO FALLS    MOSUNNY   59  28  30 SW18      30.20S
SALMON         CLOUDY    49  31  49 CALM      30.11F
BOISE            N/A     63  31  30 SE9       30.11F
SPOKANE        CLOUDY    51  41  68 S8        29.97S
$$

REGIONAL REPORTS...ALBERTA

CITY           SKY/WX    TMP DP  RH WIND       PRES   REMARKS
EDMONTON       SUNNY     41  25  52 CALM      29.74F
CALGARY        PTSUNNY   45  21  39 S7        29.77F
LETHBRIDGE     PTSUNNY   50  19  29 SW7       29.86F
MEDICINE HAT   CLOUDY    46  25  42 VRB2      29.88F
$$

REGIONAL REPORTS...SASKATCHEWAN

CITY           SKY/WX    TMP DP  RH WIND       PRES   REMARKS
SWIFT CURRENT  SUNNY     45  19  36 W20       29.88R
REGINA         MOSUNNY   48  16  27 W36G43    29.79R
SASKATOON      MOSUNNY   48  18  29 W35G44    29.70R
$$




USA.gov is the U.S. government's official web portal to all federal, state and local government web resources and services.